Date String (YYYY-MM-DD hh:mm:ss) UTC,Instrument flags,Ambient pressure (hPa),Sample flow (lpm),Bypass flow (lpm),Sample temperature (°C),Ambient temperature (°C),ASC tube jacket temperature (°C),LED temperature (°C),Box temperature (°C),Sample RH (%),Mass concentration (μg/m³),Mass concentration (μg/m³)
DateTimeUTC,F1_M11,P_M11,Q1_M11,Q2_M11,T1_M11,T2_M11,T3_M11,T4_M11,T5_M11,U1_M11,X0_M11,X2_M11
2021-08-12 19:00:00,,0833.1,4.99,0.00,28.9,25.7,00.0,38.0,30.4,26.3,0026.68,0017.80
2021-08-12 19:01:00,,0833.1,5.00,0.00,28.9,26.1,00.0,38.0,30.5,26.5,0024.78,0016.56
2021-08-12 19:02:00,,0833.1,5.00,0.00,28.9,26.5,00.0,38.0,30.6,26.5,0022.94,0015.35
2021-08-12 19:03:00,,0833.1,5.01,0.00,28.9,26.9,00.0,38.0,30.7,26.5,0020.65,0014.19
2021-08-12 19:04:00,,0833.1,5.00,0.00,29.0,27.4,00.0,38.0,30.8,26.4,0019.76,0013.70
2021-08-12 19:05:00,,0833.1,5.01,0.00,29.0,27.7,00.0,38.0,31.0,26.6,0019.74,0013.95
2021-08-12 19:06:00,,0833.1,5.00,0.00,29.1,27.5,00.0,38.0,30.9,26.1,0018.70,0014.11
2021-08-12 19:07:00,,0833.1,5.01,0.00,29.0,26.0,00.0,38.0,30.5,25.2,0018.65,0014.16
2021-08-12 19:08:00,,0833.0,5.01,0.00,28.9,25.7,00.0,38.0,30.3,27.0,0019.25,0014.14
2021-08-12 19:09:00,,0833.1,5.00,0.00,28.9,26.1,00.0,38.0,30.5,28.6,0018.86,0013.98
2021-08-12 19:10:00,,0833.0,5.00,0.00,28.9,26.5,00.0,37.9,30.6,28.1,0018.26,0013.92
2021-08-12 19:11:00,,0833.1,4.98,0.00,28.9,26.9,00.0,37.9,30.7,26.8,0019.15,0014.13
2021-08-12 19:12:00,,0833.1,5.00,0.00,28.9,27.3,00.0,37.9,30.8,26.7,0020.05,0014.53
2021-08-12 19:13:00,,0833.1,4.98,0.00,29.0,27.6,00.0,38.0,30.9,26.6,0021.07,0014.88
2021-08-12 19:14:00,,0833.1,4.99,0.00,29.1,27.9,00.0,38.0,31.0,26.6,0023.59,0015.27
2021-08-12 19:15:00,,0833.1,4.99,0.00,29.1,26.9,00.0,38.0,30.7,25.7,0025.26,0015.45
2021-08-12 19:16:00,,0833.1,5.01,0.00,28.9,25.8,00.0,38.0,30.3,26.8,0027.14,0015.44
2021-08-12 19:17:00,,0833.1,4.99,0.00,28.9,26.0,00.0,38.0,30.3,27.1,0027.86,0015.37
2021-08-12 19:18:00,,0833.1,4.99,0.00,28.9,26.3,00.0,37.9,30.5,27.9,0027.98,0015.34
2021-08-12 19:19:00,,0833.1,5.00,0.00,28.9,26.7,00.0,37.9,30.8,27.3,0028.31,0015.41
2021-08-12 19:20:00,,0833.1,5.01,0.00,28.9,27.1,00.0,37.9,30.9,25.7,0031.49,0016.25
2021-08-12 19:21:00,,0833.1,5.00,0.00,29.0,27.5,00.0,37.9,31.0,26.4,0033.95,0017.57
2021-08-12 19:22:00,,0833.2,4.99,0.00,29.1,27.8,00.0,37.9,31.1,25.6,0035.26,0018.68
2021-08-12 19:23:00,,0833.1,5.02,0.00,29.1,27.7,00.0,37.9,31.0,25.0,0037.75,0019.64
2021-08-12 19:24:00,,0833.1,4.99,0.00,29.0,26.2,00.0,37.9,30.6,25.3,0038.49,0020.59
2021-08-12 19:25:00,,0833.1,5.01,0.00,28.8,25.6,00.0,37.9,30.3,24.9,0038.37,0021.54
2021-08-12 19:26:00,,0833.1,5.00,0.00,28.7,26.0,00.0,37.8,30.4,25.2,0038.47,0022.59
2021-08-12 19:27:00,,0833.1,4.99,0.00,28.7,26.4,00.0,37.8,30.6,25.3,0037.97,0023.75
2021-08-12 19:28:00,,0833.2,5.00,0.00,28.7,26.9,00.0,37.8,30.7,25.9,0039.15,0024.94
2021-08-12 19:29:00,,0833.1,5.01,0.00,28.8,27.3,00.0,37.8,30.8,25.6,0040.98,0026.16
2021-08-12 19:30:00,,0833.1,4.99,0.00,28.9,27.6,00.0,37.8,30.9,25.3,0042.39,0027.39
2021-08-12 19:31:00,,0833.1,4.99,0.00,28.9,27.8,00.0,37.8,31.0,24.9,0041.22,0027.86
2021-08-12 19:32:00,,0833.1,5.01,0.00,28.9,26.9,00.0,37.8,30.7,24.9,0041.06,0027.88
2021-08-12 19:33:00,,0833.1,5.00,0.00,28.8,25.6,00.0,37.8,30.4,25.4,0042.26,0027.88
2021-08-12 19:34:00,,0833.1,4.99,0.00,28.6,25.6,00.0,37.8,30.3,25.9,0041.77,0027.88
2021-08-12 19:35:00,,0833.1,5.00,0.00,28.6,26.0,00.0,37.8,30.4,25.8,0042.86,0027.89
2021-08-12 19:36:00,,0833.1,5.00,0.00,28.5,26.4,00.0,37.7,30.5,25.7,0042.52,0027.86
2021-08-12 19:37:00,,0833.1,5.01,0.00,28.6,26.9,00.0,37.7,30.6,25.8,0042.82,0027.78
2021-08-12 19:38:00,,0833.1,4.99,0.00,28.7,27.2,00.0,37.7,30.7,26.0,0043.18,0027.70
2021-08-12 19:39:00,,0833.1,5.01,0.00,28.7,27.6,00.0,37.8,30.8,26.1,0042.64,0027.61
2021-08-12 19:40:00,,0833.2,5.00,0.00,28.8,27.9,00.0,37.8,30.9,25.7,0042.55,0027.52
2021-08-12 19:41:00,,0833.2,4.99,0.00,28.9,27.8,00.0,37.8,30.9,25.5,0041.88,0027.37
2021-08-12 19:42:00,,0833.2,5.00,0.00,28.8,26.3,00.0,37.8,30.6,26.0,0042.99,0027.33
2021-08-12 19:43:00,,0833.1,5.00,0.00,28.7,25.4,00.0,37.8,30.2,26.0,0042.52,0027.20
2021-08-12 19:44:00,,0833.1,5.01,0.00,28.6,25.7,00.0,37.8,30.3,26.4,0040.80,0027.11
2021-08-12 19:45:00,,0833.1,5.00,0.00,28.5,26.1,00.0,37.7,30.4,27.0,0041.72,0026.99
2021-08-12 19:46:00,,0833.1,5.01,0.00,28.5,26.5,00.0,37.7,30.5,26.6,0041.01,0026.89
2021-08-12 19:47:00,,0833.1,4.99,0.00,28.6,27.0,00.0,37.7,30.6,26.2,0041.83,0026.82
2021-08-12 19:48:00,,0833.1,5.01,0.00,28.7,27.3,00.0,37.7,30.7,26.3,0041.34,0026.73
2021-08-12 19:49:00,,0833.1,4.99,0.00,28.7,27.6,00.0,37.7,30.9,26.4,0041.27,0026.68
2021-08-12 19:50:00,,0833.1,4.99,0.00,28.8,27.9,00.0,37.8,31.0,26.2,0041.68,0026.58
2021-08-12 19:51:00,,0833.1,5.00,0.00,28.9,27.9,00.0,37.8,31.0,25.6,0042.39,0026.51
2021-08-12 19:52:00,,0833.0,5.00,0.00,28.9,26.4,00.0,37.8,30.6,26.9,0044.38,0026.49
2021-08-12 19:53:00,,0833.0,4.98,0.00,28.7,25.4,00.0,37.8,30.3,27.3,0044.20,0026.34
2021-08-12 19:54:00,,0833.0,5.01,0.00,28.6,25.7,00.0,37.8,30.3,27.0,0044.10,0026.18
2021-08-12 19:55:00,,0833.0,4.99,0.00,28.5,26.1,00.0,37.7,30.4,26.8,0043.94,0026.04
2021-08-12 19:56:00,,0833.1,5.01,0.00,28.5,26.5,00.0,37.7,30.5,26.6,0041.90,0025.94
2021-08-12 19:57:00,,0833.1,5.00,0.00,28.6,26.9,00.0,37.7,30.6,26.6,0042.12,0025.78
2021-08-12 19:58:00,,0833.2,5.00,0.00,28.7,27.3,00.0,37.7,30.8,26.5,0041.77,0025.55
2021-08-12 19:59:00,,0833.1,5.00,0.00,28.7,27.6,00.0,37.7,30.9,25.7,0041.30,0025.35
